Time,TemperatureF,DewpointF,PressureIn,WindDirection,WindDirectionDegrees,WindSpeedMPH,WindSpeedGustMPH,Humidity,HourlyPrecipIn,Conditions,Clouds,dailyrainin,SoftwareType,DateUTC
2013-10-03 00:01:00,65.0,47.0,30.08,NNW,337,9.0,12.0,52,0.00,,,0.00,Rainwise IP-100,2013-10-03 04:01:00,
2013-10-03 00:06:00,64.0,46.0,30.08,NW,315,8.0,16.0,52,0.00,,,0.00,Rainwise IP-100,2013-10-03 04:06:00,
2013-10-03 00:11:00,64.0,45.0,30.08,NW,315,10.0,11.0,50,0.00,,,0.00,Rainwise IP-100,2013-10-03 04:11:00,
2013-10-03 00:16:00,64.0,45.0,30.08,WNW,292,8.0,12.0,50,0.00,,,0.00,Rainwise IP-100,2013-10-03 04:16:00,
2013-10-03 00:21:00,64.0,44.0,30.08,NW,315,7.0,14.0,49,0.00,,,0.00,Rainwise IP-100,2013-10-03 04:21:00,
2013-10-03 00:26:00,64.0,46.0,30.08,NW,315,7.0,10.0,51,0.00,,,0.00,Rainwise IP-100,2013-10-03 04:26:00,
2013-10-03 00:31:00,63.0,46.0,30.08,NNW,337,7.0,11.0,53,0.00,,,0.00,Rainwise IP-100,2013-10-03 04:31:00,
2013-10-03 00:36:00,63.0,46.0,30.09,NW,315,3.0,11.0,54,0.00,,,0.00,Rainwise IP-100,2013-10-03 04:36:00,
2013-10-03 00:41:00,63.0,45.0,30.09,NW,315,9.0,12.0,52,0.00,,,0.00,Rainwise IP-100,2013-10-03 04:41:00,
2013-10-03 00:46:00,63.0,45.0,30.09,North,360,5.0,13.0,51,0.00,,,0.00,Rainwise IP-100,2013-10-03 04:46:00,
2013-10-03 00:51:00,63.0,45.0,30.09,NW,315,13.0,13.0,52,0.00,,,0.00,Rainwise IP-100,2013-10-03 04:51:00,
2013-10-03 00:56:00,62.0,45.0,30.09,NNW,337,8.0,14.0,53,0.00,,,0.00,Rainwise IP-100,2013-10-03 04:56:00,
2013-10-03 01:01:00,62.0,45.0,30.09,NNW,337,6.0,13.0,53,0.00,,,0.00,Rainwise IP-100,2013-10-03 05:01:00,
2013-10-03 01:06:00,62.0,44.0,30.10,NW,315,7.0,15.0,52,0.00,,,0.00,Rainwise IP-100,2013-10-03 05:06:00,
2013-10-03 01:11:00,62.0,45.0,30.10,NW,315,7.0,12.0,53,0.00,,,0.00,Rainwise IP-100,2013-10-03 05:11:00,
2013-10-03 01:16:00,62.0,45.0,30.10,NNW,337,7.0,10.0,54,0.00,,,0.00,Rainwise IP-100,2013-10-03 05:16:00,
2013-10-03 01:21:00,62.0,45.0,30.10,NW,315,7.0,11.0,54,0.00,,,0.00,Rainwise IP-100,2013-10-03 05:21:00,
2013-10-03 01:26:00,61.0,44.0,30.10,NNW,337,7.0,11.0,54,0.00,,,0.00,Rainwise IP-100,2013-10-03 05:26:00,
2013-10-03 01:31:00,61.0,45.0,30.10,NNW,337,9.0,12.0,55,0.00,,,0.00,Rainwise IP-100,2013-10-03 05:31:00,
2013-10-03 01:36:00,61.0,45.0,30.11,North,360,7.0,10.0,56,0.00,,,0.00,Rainwise IP-100,2013-10-03 05:36:00,
2013-10-03 01:41:00,60.0,45.0,30.11,WNW,292,2.0,10.0,57,0.00,,,0.00,Rainwise IP-100,2013-10-03 05:41:00,
2013-10-03 01:46:00,60.0,45.0,30.12,NNW,337,2.0,8.0,57,0.00,,,0.00,Rainwise IP-100,2013-10-03 05:46:00,
2013-10-03 01:51:00,60.0,45.0,30.12,North,360,2.0,7.0,58,0.00,,,0.00,Rainwise IP-100,2013-10-03 05:51:00,
2013-10-03 01:56:00,59.0,45.0,30.12,North,360,3.0,5.0,60,0.00,,,0.00,Rainwise IP-100,2013-10-03 05:56:00,
2013-10-03 02:01:00,59.0,45.0,30.12,North,360,3.0,10.0,59,0.00,,,0.00,Rainwise IP-100,2013-10-03 06:01:00,
2013-10-03 02:06:00,59.0,44.0,30.12,NNE,22,4.0,9.0,58,0.00,,,0.00,Rainwise IP-100,2013-10-03 06:06:00,
2013-10-03 02:11:00,59.0,44.0,30.12,NNW,337,5.0,7.0,58,0.00,,,0.00,Rainwise IP-100,2013-10-03 06:11:00,
2013-10-03 02:16:00,59.0,45.0,30.12,North,360,5.0,7.0,59,0.00,,,0.00,Rainwise IP-100,2013-10-03 06:16:00,
2013-10-03 02:21:00,59.0,45.0,30.12,North,360,6.0,7.0,59,0.00,,,0.00,Rainwise IP-100,2013-10-03 06:21:00,
2013-10-03 02:26:00,58.0,44.0,30.13,NNW,337,1.0,6.0,60,0.00,,,0.00,Rainwise IP-100,2013-10-03 06:26:00,
2013-10-03 02:31:00,58.0,45.0,30.13,NNW,337,2.0,6.0,62,0.00,,,0.00,Rainwise IP-100,2013-10-03 06:31:00,
2013-10-03 02:36:00,57.0,45.0,30.13,NNW,337,0.0,5.0,63,0.00,,,0.00,Rainwise IP-100,2013-10-03 06:36:00,
2013-10-03 02:41:00,57.0,45.0,30.13,East,90,2.0,4.0,63,0.00,,,0.00,Rainwise IP-100,2013-10-03 06:41:00,
2013-10-03 02:46:00,57.0,45.0,30.13,WSW,247,0.0,5.0,64,0.00,,,0.00,Rainwise IP-100,2013-10-03 06:46:00,
2013-10-03 02:51:00,56.0,44.0,30.13,SSE,157,2.0,2.0,64,0.00,,,0.00,Rainwise IP-100,2013-10-03 06:51:00,
2013-10-03 02:56:00,56.0,44.0,30.12,East,90,1.0,6.0,64,0.00,,,0.00,Rainwise IP-100,2013-10-03 06:56:00,
2013-10-03 03:01:00,56.0,44.0,30.12,ENE,67,3.0,5.0,64,0.00,,,0.00,Rainwise IP-100,2013-10-03 07:01:00,
2013-10-03 03:06:00,56.0,43.0,30.13,North,360,0.0,3.0,63,0.00,,,0.00,Rainwise IP-100,2013-10-03 07:06:00,
2013-10-03 03:11:00,56.0,42.0,30.13,North,360,2.0,4.0,61,0.00,,,0.00,Rainwise IP-100,2013-10-03 07:11:00,
2013-10-03 03:16:00,57.0,44.0,30.12,South,180,0.0,4.0,62,0.00,,,0.00,Rainwise IP-100,2013-10-03 07:16:00,
2013-10-03 03:21:00,57.0,43.0,30.12,SE,135,4.0,6.0,60,0.00,,,0.00,Rainwise IP-100,2013-10-03 07:21:00,
2013-10-03 03:26:00,57.0,43.0,30.12,SE,135,4.0,5.0,60,0.00,,,0.00,Rainwise IP-100,2013-10-03 07:26:00,
2013-10-03 03:31:00,57.0,43.0,30.12,SE,135,2.0,5.0,60,0.00,,,0.00,Rainwise IP-100,2013-10-03 07:31:00,
2013-10-03 03:36:00,57.0,43.0,30.13,SE,135,3.0,3.0,60,0.00,,,0.00,Rainwise IP-100,2013-10-03 07:36:00,
2013-10-03 03:41:00,56.0,43.0,30.13,SE,135,3.0,4.0,62,0.00,,,0.00,Rainwise IP-100,2013-10-03 07:41:00,
2013-10-03 03:46:00,56.0,43.0,30.14,SSE,157,5.0,6.0,62,0.00,,,0.00,Rainwise IP-100,2013-10-03 07:46:00,
2013-10-03 03:51:00,56.0,44.0,30.14,SSE,157,6.0,7.0,65,0.00,,,0.00,Rainwise IP-100,2013-10-03 07:51:00,
2013-10-03 03:56:00,55.0,45.0,30.14,SE,135,7.0,8.0,69,0.00,,,0.00,Rainwise IP-100,2013-10-03 07:56:00,
2013-10-03 04:01:00,55.0,45.0,30.14,SE,135,5.0,7.0,69,0.00,,,0.00,Rainwise IP-100,2013-10-03 08:01:00,
2013-10-03 04:06:00,55.0,44.0,30.14,SE,135,0.0,6.0,66,0.00,,,0.00,Rainwise IP-100,2013-10-03 08:06:00,
2013-10-03 04:11:00,55.0,44.0,30.14,NW,315,3.0,5.0,67,0.00,,,0.00,Rainwise IP-100,2013-10-03 08:11:00,
2013-10-03 04:16:00,54.0,44.0,30.15,West,270,0.0,5.0,68,0.00,,,0.00,Rainwise IP-100,2013-10-03 08:16:00,
2013-10-03 04:21:00,54.0,43.0,30.15,West,270,3.0,3.0,67,0.00,,,0.00,Rainwise IP-100,2013-10-03 08:21:00,
2013-10-03 04:26:00,53.0,43.0,30.15,West,270,2.0,4.0,70,0.00,,,0.00,Rainwise IP-100,2013-10-03 08:26:00,
2013-10-03 04:31:00,53.0,43.0,30.15,South,180,4.0,5.0,71,0.00,,,0.00,Rainwise IP-100,2013-10-03 08:31:00,
2013-10-03 04:36:00,53.0,45.0,30.15,South,180,2.0,5.0,74,0.00,,,0.00,Rainwise IP-100,2013-10-03 08:36:00,
2013-10-03 04:41:00,52.0,46.0,30.15,SE,135,3.0,6.0,79,0.00,,,0.00,Rainwise IP-100,2013-10-03 08:41:00,
2013-10-03 04:46:00,52.0,46.0,30.15,SE,135,3.0,5.0,79,0.00,,,0.00,Rainwise IP-100,2013-10-03 08:46:00,
2013-10-03 04:51:00,51.0,45.0,30.15,SE,135,3.0,4.0,80,0.00,,,0.00,Rainwise IP-100,2013-10-03 08:51:00,
2013-10-03 04:56:00,51.0,45.0,30.16,SE,135,3.0,5.0,78,0.00,,,0.00,Rainwise IP-100,2013-10-03 08:56:00,
2013-10-03 05:01:00,51.0,46.0,30.16,South,180,4.0,6.0,81,0.00,,,0.00,Rainwise IP-100,2013-10-03 09:01:00,
2013-10-03 05:06:00,51.0,45.0,30.16,South,180,6.0,7.0,79,0.00,,,0.00,Rainwise IP-100,2013-10-03 09:06:00,
2013-10-03 05:11:00,51.0,45.0,30.16,SSE,157,5.0,8.0,79,0.00,,,0.00,Rainwise IP-100,2013-10-03 09:11:00,
2013-10-03 05:16:00,50.0,45.0,30.17,SSE,157,6.0,8.0,82,0.00,,,0.00,Rainwise IP-100,2013-10-03 09:16:00,
2013-10-03 05:21:00,50.0,45.0,30.17,SSE,157,7.0,9.0,82,0.00,,,0.00,Rainwise IP-100,2013-10-03 09:21:00,
2013-10-03 05:26:00,50.0,44.0,30.17,SSE,157,7.0,10.0,81,0.00,,,0.00,Rainwise IP-100,2013-10-03 09:26:00,
2013-10-03 05:31:00,52.0,45.0,30.17,SE,135,6.0,9.0,76,0.00,,,0.00,Rainwise IP-100,2013-10-03 09:31:00,
2013-10-03 05:36:00,53.0,44.0,30.16,SSE,157,6.0,8.0,72,0.00,,,0.00,Rainwise IP-100,2013-10-03 09:36:00,
2013-10-03 05:41:00,51.0,45.0,30.16,SSW,202,6.0,8.0,80,0.00,,,0.00,Rainwise IP-100,2013-10-03 09:41:00,
2013-10-03 05:46:00,52.0,44.0,30.17,South,180,5.0,7.0,75,0.00,,,0.00,Rainwise IP-100,2013-10-03 09:46:00,
2013-10-03 05:51:00,51.0,45.0,30.17,South,180,3.0,6.0,80,0.00,,,0.00,Rainwise IP-100,2013-10-03 09:51:00,
2013-10-03 05:56:00,50.0,43.0,30.18,WSW,247,2.0,6.0,79,0.00,,,0.00,Rainwise IP-100,2013-10-03 09:56:00,
2013-10-03 06:01:00,49.0,45.0,30.18,WSW,247,2.0,4.0,85,0.00,,,0.00,Rainwise IP-100,2013-10-03 10:01:00,
2013-10-03 06:06:00,48.0,45.0,30.19,WSW,247,4.0,4.0,88,0.00,,,0.00,Rainwise IP-100,2013-10-03 10:06:00,
2013-10-03 06:11:00,48.0,45.0,30.19,WSW,247,3.0,5.0,89,0.00,,,0.00,Rainwise IP-100,2013-10-03 10:11:00,
2013-10-03 06:16:00,47.0,44.0,30.19,SW,225,3.0,5.0,90,0.00,,,0.00,Rainwise IP-100,2013-10-03 10:16:00,
2013-10-03 06:21:00,47.0,43.0,30.19,South,180,0.0,7.0,89,0.00,,,0.00,Rainwise IP-100,2013-10-03 10:21:00,
2013-10-03 06:26:00,47.0,44.0,30.20,SW,225,2.0,4.0,90,0.00,,,0.00,Rainwise IP-100,2013-10-03 10:26:00,
2013-10-03 06:31:00,47.0,44.0,30.20,SW,225,3.0,5.0,91,0.00,,,0.00,Rainwise IP-100,2013-10-03 10:31:00,
2013-10-03 06:36:00,47.0,44.0,30.20,SSW,202,0.0,4.0,90,0.00,,,0.00,Rainwise IP-100,2013-10-03 10:36:00,
2013-10-03 06:41:00,47.0,44.0,30.20,SSW,202,2.0,3.0,92,0.00,,,0.00,Rainwise IP-100,2013-10-03 10:41:00,
2013-10-03 06:46:00,46.0,44.0,30.21,WSW,247,3.0,5.0,93,0.00,,,0.00,Rainwise IP-100,2013-10-03 10:46:00,
2013-10-03 06:51:00,46.0,44.0,30.21,SW,225,4.0,5.0,92,0.00,,,0.00,Rainwise IP-100,2013-10-03 10:51:00,
2013-10-03 06:56:00,47.0,44.0,30.21,SSW,202,5.0,6.0,91,0.00,,,0.00,Rainwise IP-100,2013-10-03 10:56:00,
2013-10-03 07:01:00,47.0,44.0,30.21,SW,225,3.0,6.0,91,0.00,,,0.00,Rainwise IP-100,2013-10-03 11:01:00,
2013-10-03 07:06:00,47.0,44.0,30.21,SW,225,3.0,6.0,91,0.00,,,0.00,Rainwise IP-100,2013-10-03 11:06:00,
2013-10-03 07:11:00,47.0,44.0,30.21,SW,225,3.0,6.0,91,0.00,,,0.00,Rainwise IP-100,2013-10-03 11:11:00,
2013-10-03 07:16:00,47.0,44.0,30.22,SW,225,4.0,6.0,91,0.00,,,0.00,Rainwise IP-100,2013-10-03 11:16:00,
2013-10-03 07:21:00,47.0,44.0,30.22,SW,225,5.0,6.0,90,0.00,,,0.00,Rainwise IP-100,2013-10-03 11:21:00,
2013-10-03 07:26:00,47.0,44.0,30.22,WSW,247,1.0,6.0,91,0.00,,,0.00,Rainwise IP-100,2013-10-03 11:26:00,
2013-10-03 07:31:00,47.0,44.0,30.22,SW,225,2.0,4.0,92,0.00,,,0.00,Rainwise IP-100,2013-10-03 11:31:00,
2013-10-03 07:36:00,48.0,45.0,30.22,South,180,4.0,7.0,89,0.00,,,0.00,Rainwise IP-100,2013-10-03 11:36:00,
2013-10-03 07:41:00,48.0,45.0,30.22,South,180,5.0,6.0,89,0.00,,,0.00,Rainwise IP-100,2013-10-03 11:41:00,
2013-10-03 07:46:00,49.0,45.0,30.22,SSE,157,4.0,6.0,86,0.00,,,0.00,Rainwise IP-100,2013-10-03 11:46:00,
2013-10-03 07:51:00,50.0,45.0,30.22,SSE,157,0.0,6.0,84,0.00,,,0.00,Rainwise IP-100,2013-10-03 11:51:00,
2013-10-03 07:56:00,50.0,46.0,30.21,SSE,157,3.0,3.0,86,0.00,,,0.00,Rainwise IP-100,2013-10-03 11:56:00,
2013-10-03 08:01:00,50.0,45.0,30.21,South,180,1.0,4.0,84,0.00,,,0.00,Rainwise IP-100,2013-10-03 12:01:00,
2013-10-03 08:06:00,51.0,47.0,30.22,South,180,2.0,3.0,87,0.00,,,0.00,Rainwise IP-100,2013-10-03 12:06:00,
2013-10-03 08:11:00,51.0,47.0,30.22,SSW,202,3.0,3.0,87,0.00,,,0.00,Rainwise IP-100,2013-10-03 12:11:00,
2013-10-03 08:16:00,52.0,46.0,30.22,South,180,0.0,5.0,80,0.00,,,0.00,Rainwise IP-100,2013-10-03 12:16:00,
2013-10-03 08:21:00,52.0,47.0,30.22,SW,225,3.0,4.0,84,0.00,,,0.00,Rainwise IP-100,2013-10-03 12:21:00,
2013-10-03 08:26:00,53.0,47.0,30.22,SW,225,3.0,5.0,80,0.00,,,0.00,Rainwise IP-100,2013-10-03 12:26:00,
2013-10-03 08:31:00,53.0,47.0,30.22,WSW,247,3.0,5.0,79,0.00,,,0.00,Rainwise IP-100,2013-10-03 12:31:00,
2013-10-03 08:36:00,54.0,47.0,30.23,SW,225,6.0,6.0,77,0.00,,,0.00,Rainwise IP-100,2013-10-03 12:36:00,
2013-10-03 08:41:00,54.0,47.0,30.23,SW,225,4.0,6.0,77,0.00,,,0.00,Rainwise IP-100,2013-10-03 12:41:00,
2013-10-03 08:46:00,55.0,47.0,30.22,SW,225,4.0,6.0,76,0.00,,,0.00,Rainwise IP-100,2013-10-03 12:46:00,
2013-10-03 08:51:00,56.0,48.0,30.22,WSW,247,2.0,5.0,76,0.00,,,0.00,Rainwise IP-100,2013-10-03 12:51:00,
2013-10-03 08:56:00,57.0,49.0,30.21,South,180,5.0,6.0,75,0.00,,,0.00,Rainwise IP-100,2013-10-03 12:56:00,
2013-10-03 09:01:00,57.0,49.0,30.21,SW,225,4.0,5.0,74,0.00,,,0.00,Rainwise IP-100,2013-10-03 13:01:00,
2013-10-03 09:06:00,58.0,49.0,30.21,SW,225,2.0,4.0,72,0.00,,,0.00,Rainwise IP-100,2013-10-03 13:06:00,
2013-10-03 09:11:00,60.0,50.0,30.21,SW,225,0.0,4.0,69,0.00,,,0.00,Rainwise IP-100,2013-10-03 13:11:00,
2013-10-03 09:16:00,61.0,50.0,30.21,SW,225,0.0,1.0,66,0.00,,,0.00,Rainwise IP-100,2013-10-03 13:16:00,
2013-10-03 09:21:00,62.0,50.0,30.21,NW,315,3.0,4.0,65,0.00,,,0.00,Rainwise IP-100,2013-10-03 13:21:00,
2013-10-03 09:26:00,63.0,51.0,30.20,North,360,0.0,4.0,66,0.00,,,0.00,Rainwise IP-100,2013-10-03 13:26:00,
2013-10-03 09:31:00,64.0,51.0,30.20,North,360,2.0,3.0,63,0.00,,,0.00,Rainwise IP-100,2013-10-03 13:31:00,
2013-10-03 09:36:00,64.0,51.0,30.20,NE,45,0.0,3.0,63,0.00,,,0.00,Rainwise IP-100,2013-10-03 13:36:00,
2013-10-03 09:41:00,64.0,50.0,30.20,NE,45,1.0,4.0,61,0.00,,,0.00,Rainwise IP-100,2013-10-03 13:41:00,
2013-10-03 09:46:00,65.0,50.0,30.19,NE,45,1.0,3.0,60,0.00,,,0.00,Rainwise IP-100,2013-10-03 13:46:00,
2013-10-03 09:51:00,66.0,50.0,30.19,NE,45,0.0,3.0,58,0.00,,,0.00,Rainwise IP-100,2013-10-03 13:51:00,
2013-10-03 09:56:00,65.0,48.0,30.20,ENE,67,1.0,4.0,55,0.00,,,0.00,Rainwise IP-100,2013-10-03 13:56:00,
2013-10-03 10:01:00,64.0,46.0,30.20,East,90,2.0,6.0,51,0.00,,,0.00,Rainwise IP-100,2013-10-03 14:01:00,
2013-10-03 10:06:00,64.0,47.0,30.20,East,90,3.0,5.0,55,0.00,,,0.00,Rainwise IP-100,2013-10-03 14:06:00,
2013-10-03 10:11:00,64.0,46.0,30.20,East,90,3.0,5.0,51,0.00,,,0.00,Rainwise IP-100,2013-10-03 14:11:00,
2013-10-03 10:16:00,64.0,47.0,30.21,East,90,5.0,6.0,54,0.00,,,0.00,Rainwise IP-100,2013-10-03 14:16:00,
2013-10-03 10:21:00,64.0,48.0,30.21,East,90,0.0,6.0,56,0.00,,,0.00,Rainwise IP-100,2013-10-03 14:21:00,
2013-10-03 10:26:00,65.0,47.0,30.21,East,90,2.0,6.0,51,0.00,,,0.00,Rainwise IP-100,2013-10-03 14:26:00,
2013-10-03 10:31:00,65.0,47.0,30.21,East,90,1.0,6.0,52,0.00,,,0.00,Rainwise IP-100,2013-10-03 14:31:00,
2013-10-03 10:36:00,66.0,47.0,30.20,East,90,2.0,4.0,52,0.00,,,0.00,Rainwise IP-100,2013-10-03 14:36:00,
2013-10-03 10:41:00,67.0,46.0,30.20,NNE,22,3.0,5.0,46,0.00,,,0.00,Rainwise IP-100,2013-10-03 14:41:00,
2013-10-03 10:46:00,68.0,48.0,30.19,East,90,0.0,5.0,49,0.00,,,0.00,Rainwise IP-100,2013-10-03 14:46:00,
2013-10-03 10:51:00,68.0,47.0,30.19,ENE,67,1.0,6.0,48,0.00,,,0.00,Rainwise IP-100,2013-10-03 14:51:00,
2013-10-03 10:56:00,67.0,47.0,30.19,East,90,0.0,5.0,48,0.00,,,0.00,Rainwise IP-100,2013-10-03 14:56:00,
2013-10-03 11:01:00,68.0,48.0,30.19,ESE,112,0.0,6.0,49,0.00,,,0.00,Rainwise IP-100,2013-10-03 15:01:00,
2013-10-03 11:06:00,68.0,47.0,30.19,ESE,112,1.0,4.0,47,0.00,,,0.00,Rainwise IP-100,2013-10-03 15:06:00,
2013-10-03 11:11:00,67.0,47.0,30.19,East,90,2.0,6.0,49,0.00,,,0.00,Rainwise IP-100,2013-10-03 15:11:00,
2013-10-03 11:16:00,67.0,46.0,30.19,ESE,112,0.0,6.0,47,0.00,,,0.00,Rainwise IP-100,2013-10-03 15:16:00,
2013-10-03 11:21:00,68.0,47.0,30.19,ENE,67,2.0,3.0,46,0.00,,,0.00,Rainwise IP-100,2013-10-03 15:21:00,
2013-10-03 11:26:00,68.0,45.0,30.19,NNE,22,0.0,5.0,43,0.00,,,0.00,Rainwise IP-100,2013-10-03 15:26:00,
2013-10-03 11:31:00,68.0,46.0,30.19,West,270,4.0,4.0,45,0.00,,,0.00,Rainwise IP-100,2013-10-03 15:31:00,
2013-10-03 11:36:00,67.0,47.0,30.19,SSW,202,6.0,6.0,49,0.00,,,0.00,Rainwise IP-100,2013-10-03 15:36:00,
2013-10-03 11:41:00,67.0,48.0,30.19,SW,225,2.0,6.0,50,0.00,,,0.00,Rainwise IP-100,2013-10-03 15:41:00,
2013-10-03 11:46:00,68.0,46.0,30.19,South,180,1.0,5.0,45,0.00,,,0.00,Rainwise IP-100,2013-10-03 15:46:00,
2013-10-03 11:51:00,67.0,48.0,30.19,WSW,247,0.0,7.0,50,0.00,,,0.00,Rainwise IP-100,2013-10-03 15:51:00,
2013-10-03 11:56:00,67.0,47.0,30.18,WSW,247,6.0,8.0,49,0.00,,,0.00,Rainwise IP-100,2013-10-03 15:56:00,
2013-10-03 12:01:00,67.0,47.0,30.18,WSW,247,8.0,9.0,49,0.00,,,0.00,Rainwise IP-100,2013-10-03 16:01:00,
2013-10-03 12:06:00,68.0,48.0,30.18,SW,225,2.0,8.0,49,0.00,,,0.00,Rainwise IP-100,2013-10-03 16:06:00,
2013-10-03 12:11:00,67.0,45.0,30.18,SSW,202,3.0,7.0,45,0.00,,,0.00,Rainwise IP-100,2013-10-03 16:11:00,
2013-10-03 12:16:00,67.0,46.0,30.18,NNW,337,5.0,10.0,46,0.00,,,0.00,Rainwise IP-100,2013-10-03 16:16:00,
2013-10-03 12:21:00,67.0,47.0,30.18,NW,315,7.0,9.0,48,0.00,,,0.00,Rainwise IP-100,2013-10-03 16:21:00,
2013-10-03 12:26:00,67.0,45.0,30.18,NNW,337,5.0,11.0,45,0.00,,,0.00,Rainwise IP-100,2013-10-03 16:26:00,
2013-10-03 12:31:00,68.0,47.0,30.18,North,360,0.0,10.0,47,0.00,,,0.00,Rainwise IP-100,2013-10-03 16:31:00,
2013-10-03 12:36:00,68.0,45.0,30.17,NNW,337,4.0,12.0,44,0.00,,,0.00,Rainwise IP-100,2013-10-03 16:36:00,
2013-10-03 12:41:00,68.0,45.0,30.17,NW,315,7.0,10.0,44,0.00,,,0.00,Rainwise IP-100,2013-10-03 16:41:00,
2013-10-03 12:46:00,68.0,47.0,30.17,NW,315,6.0,13.0,48,0.00,,,0.00,Rainwise IP-100,2013-10-03 16:46:00,
2013-10-03 12:51:00,68.0,44.0,30.17,NNW,337,5.0,10.0,42,0.00,,,0.00,Rainwise IP-100,2013-10-03 16:51:00,
2013-10-03 12:56:00,68.0,46.0,30.16,NE,45,1.0,12.0,45,0.00,,,0.00,Rainwise IP-100,2013-10-03 16:56:00,
2013-10-03 13:01:00,68.0,45.0,30.16,NW,315,6.0,10.0,43,0.00,,,0.00,Rainwise IP-100,2013-10-03 17:01:00,
2013-10-03 13:06:00,68.0,45.0,30.16,NE,45,5.0,11.0,44,0.00,,,0.00,Rainwise IP-100,2013-10-03 17:06:00,
2013-10-03 13:11:00,68.0,45.0,30.16,NW,315,7.0,9.0,44,0.00,,,0.00,Rainwise IP-100,2013-10-03 17:11:00,
2013-10-03 13:16:00,68.0,45.0,30.16,NW,315,4.0,13.0,43,0.00,,,0.00,Rainwise IP-100,2013-10-03 17:16:00,
2013-10-03 13:21:00,69.0,46.0,30.16,NW,315,1.0,8.0,44,0.00,,,0.00,Rainwise IP-100,2013-10-03 17:21:00,
2013-10-03 13:26:00,69.0,45.0,30.15,WNW,292,3.0,6.0,42,0.00,,,0.00,Rainwise IP-100,2013-10-03 17:26:00,
2013-10-03 13:31:00,69.0,47.0,30.15,NW,315,9.0,9.0,45,0.00,,,0.00,Rainwise IP-100,2013-10-03 17:31:00,
2013-10-03 13:36:00,68.0,43.0,30.14,NW,315,2.0,12.0,41,0.00,,,0.00,Rainwise IP-100,2013-10-03 17:36:00,
2013-10-03 13:41:00,69.0,46.0,30.14,NW,315,6.0,11.0,44,0.00,,,0.00,Rainwise IP-100,2013-10-03 17:41:00,
2013-10-03 13:46:00,69.0,46.0,30.14,North,360,2.0,10.0,43,0.00,,,0.00,Rainwise IP-100,2013-10-03 17:46:00,
2013-10-03 13:51:00,69.0,46.0,30.14,North,360,6.0,9.0,44,0.00,,,0.00,Rainwise IP-100,2013-10-03 17:51:00,
2013-10-03 13:56:00,69.0,46.0,30.13,North,360,3.0,10.0,43,0.00,,,0.00,Rainwise IP-100,2013-10-03 17:56:00,
2013-10-03 14:01:00,70.0,45.0,30.13,NW,315,2.0,7.0,41,0.00,,,0.00,Rainwise IP-100,2013-10-03 18:01:00,
2013-10-03 14:06:00,70.0,44.0,30.13,NE,45,4.0,5.0,39,0.00,,,0.00,Rainwise IP-100,2013-10-03 18:06:00,
2013-10-03 14:11:00,70.0,45.0,30.13,NNW,337,8.0,12.0,40,0.00,,,0.00,Rainwise IP-100,2013-10-03 18:11:00,
2013-10-03 14:16:00,69.0,44.0,30.13,North,360,2.0,11.0,41,0.00,,,0.00,Rainwise IP-100,2013-10-03 18:16:00,
2013-10-03 14:21:00,71.0,47.0,30.13,North,360,3.0,5.0,43,0.00,,,0.00,Rainwise IP-100,2013-10-03 18:21:00,
2013-10-03 14:26:00,70.0,44.0,30.13,NNW,337,9.0,12.0,39,0.00,,,0.00,Rainwise IP-100,2013-10-03 18:26:00,
2013-10-03 14:31:00,70.0,45.0,30.13,North,360,3.0,9.0,41,0.00,,,0.00,Rainwise IP-100,2013-10-03 18:31:00,
2013-10-03 14:36:00,70.0,43.0,30.13,NW,315,7.0,11.0,38,0.00,,,0.00,Rainwise IP-100,2013-10-03 18:36:00,
2013-10-03 14:41:00,70.0,44.0,30.13,North,360,5.0,9.0,39,0.00,,,0.00,Rainwise IP-100,2013-10-03 18:41:00,
2013-10-03 14:46:00,70.0,45.0,30.13,NW,315,8.0,8.0,40,0.00,,,0.00,Rainwise IP-100,2013-10-03 18:46:00,
2013-10-03 14:51:00,70.0,44.0,30.13,North,360,4.0,10.0,39,0.00,,,0.00,Rainwise IP-100,2013-10-03 18:51:00,
2013-10-03 14:56:00,71.0,47.0,30.13,West,270,4.0,6.0,44,0.00,,,0.00,Rainwise IP-100,2013-10-03 18:56:00,
2013-10-03 15:01:00,72.0,47.0,30.13,WNW,292,0.0,6.0,40,0.00,,,0.00,Rainwise IP-100,2013-10-03 19:01:00,
2013-10-03 15:06:00,72.0,43.0,30.12,North,360,5.0,8.0,36,0.00,,,0.00,Rainwise IP-100,2013-10-03 19:06:00,
2013-10-03 15:11:00,71.0,44.0,30.12,NNW,337,9.0,14.0,38,0.00,,,0.00,Rainwise IP-100,2013-10-03 19:11:00,
2013-10-03 15:16:00,71.0,47.0,30.13,NNW,337,7.0,12.0,42,0.00,,,0.00,Rainwise IP-100,2013-10-03 19:16:00,
2013-10-03 15:21:00,70.0,46.0,30.13,NW,315,5.0,10.0,42,0.00,,,0.00,Rainwise IP-100,2013-10-03 19:21:00,
2013-10-03 15:26:00,71.0,47.0,30.12,NW,315,2.0,6.0,42,0.00,,,0.00,Rainwise IP-100,2013-10-03 19:26:00,
2013-10-03 15:31:00,71.0,46.0,30.12,NW,315,3.0,7.0,41,0.00,,,0.00,Rainwise IP-100,2013-10-03 19:31:00,
2013-10-03 15:36:00,72.0,46.0,30.11,NNW,337,3.0,7.0,39,0.00,,,0.00,Rainwise IP-100,2013-10-03 19:36:00,
2013-10-03 15:41:00,72.0,47.0,30.11,North,360,3.0,6.0,41,0.00,,,0.00,Rainwise IP-100,2013-10-03 19:41:00,
2013-10-03 15:46:00,73.0,46.0,30.11,NNE,22,3.0,6.0,38,0.00,,,0.00,Rainwise IP-100,2013-10-03 19:46:00,
2013-10-03 15:51:00,72.0,47.0,30.11,NE,45,1.0,5.0,42,0.00,,,0.00,Rainwise IP-100,2013-10-03 19:51:00,
2013-10-03 15:56:00,72.0,49.0,30.11,NE,45,2.0,4.0,44,0.00,,,0.00,Rainwise IP-100,2013-10-03 19:56:00,
2013-10-03 16:01:00,70.0,46.0,30.11,NE,45,5.0,6.0,42,0.00,,,0.00,Rainwise IP-100,2013-10-03 20:01:00,
2013-10-03 16:06:00,70.0,46.0,30.13,NNW,337,2.0,6.0,42,0.00,,,0.00,Rainwise IP-100,2013-10-03 20:06:00,
2013-10-03 16:11:00,70.0,47.0,30.13,NNW,337,1.0,5.0,45,0.00,,,0.00,Rainwise IP-100,2013-10-03 20:11:00,
2013-10-03 16:16:00,69.0,47.0,30.13,NNW,337,0.0,3.0,46,0.00,,,0.00,Rainwise IP-100,2013-10-03 20:16:00,
2013-10-03 16:21:00,69.0,48.0,30.13,North,360,0.0,2.0,48,0.00,,,0.00,Rainwise IP-100,2013-10-03 20:21:00,
2013-10-03 16:26:00,69.0,48.0,30.13,NE,45,0.0,3.0,48,0.00,,,0.00,Rainwise IP-100,2013-10-03 20:26:00,
2013-10-03 16:31:00,69.0,48.0,30.13,NNE,22,1.0,5.0,48,0.00,,,0.00,Rainwise IP-100,2013-10-03 20:31:00,
2013-10-03 16:36:00,69.0,49.0,30.12,NNE,22,1.0,2.0,49,0.00,,,0.00,Rainwise IP-100,2013-10-03 20:36:00,
2013-10-03 16:41:00,68.0,47.0,30.12,North,360,0.0,6.0,48,0.00,,,0.00,Rainwise IP-100,2013-10-03 20:41:00,
2013-10-03 16:46:00,68.0,49.0,30.13,North,360,0.0,5.0,50,0.00,,,0.00,Rainwise IP-100,2013-10-03 20:46:00,
2013-10-03 16:51:00,68.0,49.0,30.13,North,360,2.0,2.0,50,0.00,,,0.00,Rainwise IP-100,2013-10-03 20:51:00,
2013-10-03 16:56:00,67.0,49.0,30.12,NW,315,3.0,4.0,52,0.00,,,0.00,Rainwise IP-100,2013-10-03 20:56:00,
2013-10-03 17:01:00,67.0,50.0,30.12,NW,315,3.0,4.0,53,0.00,,,0.00,Rainwise IP-100,2013-10-03 21:01:00,
2013-10-03 17:06:00,66.0,48.0,30.13,NW,315,4.0,5.0,53,0.00,,,0.00,Rainwise IP-100,2013-10-03 21:06:00,
2013-10-03 17:11:00,66.0,50.0,30.13,NW,315,1.0,5.0,56,0.00,,,0.00,Rainwise IP-100,2013-10-03 21:11:00,
2013-10-03 17:16:00,66.0,49.0,30.13,NW,315,0.0,3.0,55,0.00,,,0.00,Rainwise IP-100,2013-10-03 21:16:00,
2013-10-03 17:21:00,65.0,52.0,30.13,NW,315,0.0,2.0,63,0.00,,,0.00,Rainwise IP-100,2013-10-03 21:21:00,
2013-10-03 17:26:00,65.0,51.0,30.13,NW,315,0.0,0.0,61,0.00,,,0.00,Rainwise IP-100,2013-10-03 21:26:00,
2013-10-03 17:31:00,64.0,51.0,30.13,NW,315,0.0,0.0,63,0.00,,,0.00,Rainwise IP-100,2013-10-03 21:31:00,
2013-10-03 17:36:00,64.0,53.0,30.14,NW,315,0.0,3.0,66,0.00,,,0.00,Rainwise IP-100,2013-10-03 21:36:00,
2013-10-03 17:41:00,64.0,53.0,30.14,NW,315,0.0,0.0,66,0.00,,,0.00,Rainwise IP-100,2013-10-03 21:41:00,
2013-10-03 17:46:00,63.0,51.0,30.15,NW,315,0.0,0.0,65,0.00,,,0.00,Rainwise IP-100,2013-10-03 21:46:00,
2013-10-03 17:51:00,63.0,51.0,30.15,NW,315,0.0,0.0,65,0.00,,,0.00,Rainwise IP-100,2013-10-03 21:51:00,
2013-10-03 17:56:00,63.0,51.0,30.15,West,270,1.0,1.0,66,0.00,,,0.00,Rainwise IP-100,2013-10-03 21:56:00,
2013-10-03 18:01:00,63.0,52.0,30.15,West,270,0.0,2.0,67,0.00,,,0.00,Rainwise IP-100,2013-10-03 22:01:00,
2013-10-03 18:06:00,62.0,50.0,30.15,West,270,0.0,1.0,65,0.00,,,0.00,Rainwise IP-100,2013-10-03 22:06:00,
2013-10-03 18:11:00,62.0,50.0,30.15,West,270,0.0,0.0,64,0.00,,,0.00,Rainwise IP-100,2013-10-03 22:11:00,
2013-10-03 18:16:00,62.0,51.0,30.15,South,180,3.0,5.0,67,0.00,,,0.00,Rainwise IP-100,2013-10-03 22:16:00,
2013-10-03 18:21:00,62.0,52.0,30.15,SE,135,5.0,6.0,70,0.00,,,0.00,Rainwise IP-100,2013-10-03 22:21:00,
2013-10-03 18:26:00,61.0,51.0,30.16,SE,135,3.0,6.0,71,0.00,,,0.00,Rainwise IP-100,2013-10-03 22:26:00,
2013-10-03 18:31:00,61.0,50.0,30.16,SE,135,3.0,4.0,69,0.00,,,0.00,Rainwise IP-100,2013-10-03 22:31:00,
2013-10-03 18:36:00,61.0,51.0,30.17,SE,135,0.0,3.0,70,0.00,,,0.00,Rainwise IP-100,2013-10-03 22:36:00,
2013-10-03 18:41:00,60.0,50.0,30.17,SE,135,1.0,4.0,70,0.00,,,0.00,Rainwise IP-100,2013-10-03 22:41:00,
2013-10-03 18:46:00,60.0,51.0,30.17,SE,135,2.0,5.0,73,0.00,,,0.00,Rainwise IP-100,2013-10-03 22:46:00,
2013-10-03 18:51:00,60.0,50.0,30.17,SE,135,2.0,3.0,71,0.00,,,0.00,Rainwise IP-100,2013-10-03 22:51:00,
2013-10-03 18:56:00,60.0,50.0,30.17,SE,135,1.0,3.0,71,0.00,,,0.00,Rainwise IP-100,2013-10-03 22:56:00,
2013-10-03 19:01:00,60.0,50.0,30.17,SE,135,2.0,3.0,71,0.00,,,0.00,Rainwise IP-100,2013-10-03 23:01:00,
2013-10-03 19:06:00,59.0,50.0,30.17,SE,135,3.0,4.0,74,0.00,,,0.00,Rainwise IP-100,2013-10-03 23:06:00,
2013-10-03 19:11:00,59.0,51.0,30.17,SSE,157,3.0,5.0,75,0.00,,,0.00,Rainwise IP-100,2013-10-03 23:11:00,
2013-10-03 19:16:00,58.0,52.0,30.18,SSE,157,6.0,7.0,79,0.00,,,0.00,Rainwise IP-100,2013-10-03 23:16:00,
2013-10-03 19:21:00,57.0,51.0,30.18,SSE,157,6.0,8.0,80,0.00,,,0.00,Rainwise IP-100,2013-10-03 23:21:00,
2013-10-03 19:26:00,57.0,51.0,30.19,SE,135,6.0,8.0,81,0.00,,,0.00,Rainwise IP-100,2013-10-03 23:26:00,
2013-10-03 19:31:00,56.0,50.0,30.19,SE,135,7.0,7.0,81,0.00,,,0.00,Rainwise IP-100,2013-10-03 23:31:00,
2013-10-03 19:36:00,56.0,50.0,30.19,WSW,247,2.0,7.0,82,0.00,,,0.00,Rainwise IP-100,2013-10-03 23:36:00,
2013-10-03 19:41:00,56.0,50.0,30.19,SSE,157,5.0,5.0,81,0.00,,,0.00,Rainwise IP-100,2013-10-03 23:41:00,
2013-10-03 19:46:00,56.0,50.0,30.19,SE,135,7.0,9.0,82,0.00,,,0.00,Rainwise IP-100,2013-10-03 23:46:00,
2013-10-03 19:51:00,56.0,50.0,30.19,SE,135,6.0,9.0,82,0.00,,,0.00,Rainwise IP-100,2013-10-03 23:51:00,
2013-10-03 19:56:00,55.0,50.0,30.19,SE,135,0.0,7.0,83,0.00,,,0.00,Rainwise IP-100,2013-10-03 23:56:00,
2013-10-03 20:01:00,55.0,50.0,30.19,SE,135,0.0,1.0,84,0.00,,,0.00,Rainwise IP-100,2013-10-04 00:01:00,
2013-10-03 20:06:00,54.0,50.0,30.20,SE,135,0.0,0.0,87,0.00,,,0.00,Rainwise IP-100,2013-10-04 00:06:00,
2013-10-03 20:11:00,53.0,50.0,30.20,SW,225,4.0,4.0,90,0.00,,,0.00,Rainwise IP-100,2013-10-04 00:11:00,
2013-10-03 20:16:00,54.0,50.0,30.20,SW,225,2.0,5.0,85,0.00,,,0.00,Rainwise IP-100,2013-10-04 00:16:00,
2013-10-03 20:21:00,55.0,50.0,30.20,SW,225,1.0,3.0,85,0.00,,,0.00,Rainwise IP-100,2013-10-04 00:21:00,
2013-10-03 20:26:00,54.0,50.0,30.19,SE,135,4.0,6.0,85,0.00,,,0.00,Rainwise IP-100,2013-10-04 00:26:00,
2013-10-03 20:31:00,54.0,50.0,30.19,SE,135,4.0,6.0,87,0.00,,,0.00,Rainwise IP-100,2013-10-04 00:31:00,
2013-10-03 20:36:00,54.0,50.0,30.21,SE,135,3.0,6.0,87,0.00,,,0.00,Rainwise IP-100,2013-10-04 00:36:00,
2013-10-03 20:41:00,53.0,50.0,30.21,SW,225,3.0,5.0,90,0.00,,,0.00,Rainwise IP-100,2013-10-04 00:41:00,
2013-10-03 20:46:00,52.0,49.0,30.21,SW,225,2.0,3.0,91,0.00,,,0.00,Rainwise IP-100,2013-10-04 00:46:00,
2013-10-03 20:51:00,52.0,49.0,30.21,South,180,4.0,4.0,91,0.00,,,0.00,Rainwise IP-100,2013-10-04 00:51:00,
2013-10-03 20:56:00,53.0,49.0,30.21,SSE,157,4.0,5.0,88,0.00,,,0.00,Rainwise IP-100,2013-10-04 00:56:00,
2013-10-03 21:01:00,53.0,50.0,30.21,SSE,157,0.0,4.0,89,0.00,,,0.00,Rainwise IP-100,2013-10-04 01:01:00,
2013-10-03 21:06:00,52.0,49.0,30.21,SW,225,2.0,3.0,91,0.00,,,0.00,Rainwise IP-100,2013-10-04 01:06:00,
2013-10-03 21:11:00,52.0,50.0,30.21,SW,225,0.0,4.0,92,0.00,,,0.00,Rainwise IP-100,2013-10-04 01:11:00,
2013-10-03 21:16:00,52.0,49.0,30.21,SSE,157,2.0,6.0,91,0.00,,,0.00,Rainwise IP-100,2013-10-04 01:16:00,
2013-10-03 21:21:00,51.0,49.0,30.21,SW,225,3.0,4.0,92,0.00,,,0.00,Rainwise IP-100,2013-10-04 01:21:00,
2013-10-03 21:26:00,52.0,49.0,30.21,SSE,157,6.0,6.0,90,0.00,,,0.00,Rainwise IP-100,2013-10-04 01:26:00,
2013-10-03 21:31:00,52.0,49.0,30.21,SW,225,4.0,6.0,91,0.00,,,0.00,Rainwise IP-100,2013-10-04 01:31:00,
2013-10-03 21:36:00,51.0,50.0,30.22,SSW,202,5.0,6.0,94,0.00,,,0.00,Rainwise IP-100,2013-10-04 01:36:00,
2013-10-03 21:41:00,52.0,49.0,30.22,SSE,157,4.0,7.0,91,0.00,,,0.00,Rainwise IP-100,2013-10-04 01:41:00,
2013-10-03 21:46:00,51.0,49.0,30.21,SSE,157,0.0,6.0,91,0.00,,,0.00,Rainwise IP-100,2013-10-04 01:46:00,
2013-10-03 21:51:00,51.0,49.0,30.21,SSE,157,0.0,0.0,92,0.00,,,0.00,Rainwise IP-100,2013-10-04 01:51:00,
2013-10-03 21:56:00,50.0,49.0,30.23,SSE,157,0.0,0.0,96,0.00,,,0.00,Rainwise IP-100,2013-10-04 01:56:00,
2013-10-03 22:01:00,50.0,49.0,30.23,SSE,157,0.0,1.0,97,0.00,,,0.00,Rainwise IP-100,2013-10-04 02:01:00,
2013-10-03 22:06:00,50.0,49.0,30.22,SW,225,1.0,3.0,97,0.00,,,0.00,Rainwise IP-100,2013-10-04 02:06:00,
2013-10-03 22:11:00,50.0,49.0,30.22,SW,225,0.0,2.0,97,0.00,,,0.00,Rainwise IP-100,2013-10-04 02:11:00,
2013-10-03 22:16:00,50.0,49.0,30.22,SW,225,0.0,0.0,97,0.00,,,0.00,Rainwise IP-100,2013-10-04 02:16:00,
2013-10-03 22:21:00,50.0,49.0,30.22,SW,225,2.0,3.0,97,0.00,,,0.00,Rainwise IP-100,2013-10-04 02:21:00,
2013-10-03 22:26:00,50.0,49.0,30.22,South,180,4.0,4.0,97,0.00,,,0.00,Rainwise IP-100,2013-10-04 02:26:00,
2013-10-03 22:31:00,51.0,50.0,30.22,South,180,3.0,5.0,94,0.00,,,0.00,Rainwise IP-100,2013-10-04 02:31:00,
2013-10-03 22:36:00,50.0,48.0,30.21,SSW,202,2.0,6.0,95,0.00,,,0.00,Rainwise IP-100,2013-10-04 02:36:00,
2013-10-03 22:41:00,50.0,48.0,30.21,SW,225,2.0,6.0,95,0.00,,,0.00,Rainwise IP-100,2013-10-04 02:41:00,
2013-10-03 22:46:00,49.0,48.0,30.23,SW,225,3.0,4.0,97,0.00,,,0.00,Rainwise IP-100,2013-10-04 02:46:00,
2013-10-03 22:51:00,49.0,48.0,30.23,SSW,202,6.0,6.0,97,0.00,,,0.00,Rainwise IP-100,2013-10-04 02:51:00,
2013-10-03 22:56:00,49.0,48.0,30.22,SE,135,4.0,6.0,97,0.00,,,0.00,Rainwise IP-100,2013-10-04 02:56:00,
2013-10-03 23:01:00,49.0,48.0,30.22,SE,135,6.0,6.0,97,0.00,,,0.00,Rainwise IP-100,2013-10-04 03:01:00,
2013-10-03 23:06:00,49.0,48.0,30.23,SE,135,4.0,7.0,96,0.00,,,0.00,Rainwise IP-100,2013-10-04 03:06:00,
2013-10-03 23:11:00,50.0,49.0,30.23,SSE,157,5.0,6.0,97,0.00,,,0.00,Rainwise IP-100,2013-10-04 03:11:00,
2013-10-03 23:16:00,50.0,47.0,30.22,SW,225,2.0,6.0,91,0.00,,,0.00,Rainwise IP-100,2013-10-04 03:16:00,
2013-10-03 23:21:00,49.0,48.0,30.22,SW,225,3.0,3.0,96,0.00,,,0.00,Rainwise IP-100,2013-10-04 03:21:00,
2013-10-03 23:26:00,49.0,48.0,30.23,South,180,4.0,5.0,97,0.00,,,0.00,Rainwise IP-100,2013-10-04 03:26:00,
2013-10-03 23:31:00,49.0,48.0,30.23,South,180,4.0,5.0,97,0.00,,,0.00,Rainwise IP-100,2013-10-04 03:31:00,
2013-10-03 23:36:00,49.0,48.0,30.21,South,180,4.0,6.0,96,0.00,,,0.00,Rainwise IP-100,2013-10-04 03:36:00,
2013-10-03 23:41:00,50.0,48.0,30.21,SSE,157,6.0,6.0,95,0.00,,,0.00,Rainwise IP-100,2013-10-04 03:41:00,
2013-10-03 23:46:00,50.0,47.0,30.21,West,270,3.0,6.0,93,0.00,,,0.00,Rainwise IP-100,2013-10-04 03:46:00,
2013-10-03 23:51:00,49.0,48.0,30.21,WSW,247,0.0,4.0,97,0.00,,,0.00,Rainwise IP-100,2013-10-04 03:51:00,
2013-10-03 23:56:00,49.0,48.0,30.22,SSW,202,3.0,5.0,97,0.00,,,0.00,Rainwise IP-100,2013-10-04 03:56:00,